Location: Terra Rouge Observatory
(46.0000°N, 62.7500°W)
Time: 17:31:59
(UTC-03:00)

NOSS 3-1 (A) - Visible Passes

Search period start: 24 October 2014 00:00
Search period end: 02 November 2014 23:00
Orbit: 892 x 1321 km, 63.4° (Epoch: 19 October)

Date Brightness Start Highest point End Pass type
(mag) Time Alt. Az. Time Alt. Az. Time Alt. Az.
24 Oct 5.9 02:52:29 17° NNE 02:52:29 17° NNE 02:55:14 10° NE visible
24 Oct 5.7 04:39:56 15° NNW 04:43:51 22° NNE 04:49:34 10° ENE visible
24 Oct 4.8 06:29:31 10° NNW 06:36:36 50° NE 06:44:17 10° ESE visible
25 Oct 6.3 02:09:19 13° NNE 02:09:19 13° NNE 02:10:11 10° NNE visible
25 Oct 5.6 03:56:46 18° N 03:58:26 20° N 04:03:40 10° NE visible
25 Oct 5.1 05:44:53 10° NNW 05:51:34 38° NE 05:58:48 10° ESE visible
26 Oct 5.8 03:13:38 19° N 03:13:38 19° N 03:17:56 10° NE visible
26 Oct 5.4 05:01:05 13° NNW 05:06:25 30° NNE 05:13:05 10° E visible
26 Oct 4.2 06:51:00 10° NW 06:58:27 82° NE 07:06:32 10° SE visible
27 Oct 6.1 02:30:33 15° NNE 02:30:33 15° NNE 02:32:27 10° NE visible
27 Oct 5.6 04:18:00 19° NNW 04:21:09 25° NNE 04:27:13 10° ENE visible
27 Oct 4.5 06:06:21 10° NW 06:13:38 60° NE 06:21:32 10° SE visible
28 Oct 5.7 03:34:58 21° N 03:35:47 21° NNE 03:41:17 10° ENE visible
28 Oct 4.9 05:22:25 13° NNW 05:28:41 45° NE 05:36:13 10° ESE visible
29 Oct 6.0 02:51:59 18° NNE 02:51:59 18° NNE 02:55:26 10° NE visible
29 Oct 5.2 04:39:27 20° NNW 04:43:36 34° NNE 04:50:38 10° E visible
29 Oct 4.0 06:27:54 10° NW 06:35:22 83° SW 06:43:26 10° SSE visible
30 Oct 6.4 02:09:05 12° NE 02:09:05 12° NE 02:09:48 10° NE visible
30 Oct 5.4 03:56:33 25° N 03:58:24 28° NNE 04:04:51 10° E visible
30 Oct 4.2 05:44:01 14° NW 05:50:37 73° NE 05:58:39 10° SE visible
31 Oct 5.7 03:13:44 23° NNE 03:13:44 23° NNE 03:18:56 10° ENE visible
31 Oct 4.5 05:01:13 24° NNW 05:05:45 54° NE 05:13:31 10° ESE visible
31 Oct 4.3 06:49:41 10° NW 06:56:47 46° WSW 07:04:23 10° S visible
01 Nov 6.2 02:31:01 15° NE 02:31:01 15° NE 02:33:01 10° ENE visible
01 Nov 4.9 04:18:30 33° N 04:20:45 40° NE 04:28:06 10° ESE visible
01 Nov 4.0 06:06:00 16° NW 06:12:14 67° WSW 06:20:13 10° SSE visible
02 Nov 5.3 02:35:55 31° NE 02:35:55 31° NE 02:42:26 10° E visible
02 Nov 3.9 04:23:24 31° NW 04:27:33 88° NE 04:35:38 10° SE visible
02 Nov 5.0 06:12:04 10° WNW 06:17:54 24° WSW 06:24:00 10° SSW visible
02 Nov 5.3 20:05:53 10° SSW 20:07:21 19° SSW 20:07:21 19° SSW visible
